Location: Unspecified
(41.1637°N, 24.2901°E)
Time: 03:15:17
(UTC+01:00)

ISS - Visible Passes

Search period start: 11 December 2017 00:00
Search period end: 21 December 2017 00:00
Orbit: 402 x 407 km, 51.6° (Epoch: 10 December)

Date Brightness Start Highest point End Pass type
(mag) Time Alt. Az. Time Alt. Az. Time Alt. Az.
11 Dec -1.9 16:39:06 10° NNW 16:41:19 17° NNE 16:43:06 12° NE visible
11 Dec -1.1 18:15:05 10° NW 18:15:46 15° NW 18:15:46 15° NW visible
12 Dec -3.0 17:22:55 10° NW 17:25:56 34° NNE 17:25:56 34° NNE visible
13 Dec -2.5 16:30:48 10° NW 16:33:32 23° NNE 16:36:16 10° ENE visible
13 Dec -2.1 18:06:59 10° WNW 18:08:57 32° WNW 18:08:57 32° WNW visible
14 Dec -3.9 17:14:40 10° NW 17:17:58 72° NE 17:19:31 28° ESE visible
15 Dec -3.3 16:22:27 10° NW 16:25:36 40° NNE 16:28:43 10° E visible
15 Dec -1.6 17:59:13 10° WNW 18:01:56 24° SW 18:03:10 19° SSW visible
16 Dec -2.7 17:06:33 10° WNW 17:09:44 46° SW 17:12:53 10° SSE visible
17 Dec -0.1 17:53:21 10° SW 17:53:26 10° SW 17:53:30 10° SW visible
18 Dec -0.8 16:58:53 10° W 17:01:19 19° SW 17:03:44 10° S visible
